Miscellaneous Local Product
Issued by NWS Hastings, NE

Home | Current Version | Previous Version | Text Only | Print | Product List | Glossary On
Versions: 1 2 3 4 5 6 7 8 9 10 11 12 13 14 15 16 17 18 19 20 21 22 23 24 25 26 27 28 29 30 31 32 33 34 35 36 37 38 39 40 41 42 43 44 45 46 47 48 49 50
000
AXUS43 KGID 300802
MISGRI

GID CWA HOURLY WEATHER ROUNDUP
NATIONAL WEATHER SERVICE HASTINGS NE
300 AM CDT SUN AUG 30 2015

NOTE: "FAIR" INDICATES FEW OR NO CLOUDS BELOW 12,000 FEET WITH NO
SIGNIFICANT WEATHER AND/OR OBSTRUCTIONS TO VISIBILITY.

...SOUTH CENTRAL NEBRASKA...

CITY           SKY/WX    TMP DP  RH WIND       PRES   REMARKS
GRAND ISLAND   CLOUDY    63  62  97 S10       30.03F FOG
HASTINGS       FOG       62  61  96 S8        30.04F VSB 3/4
KEARNEY        CLEAR     61  57  88 SW8       30.04S
ORD            CLEAR     56  55  97 CALM      30.01F
YORK           FOG       63  63 100 S8        30.04F VSB 1/2
AURORA         FOG       62  62 100 S6        30.03F VSB 1/4
LEXINGTON      CLEAR     62  58  88 S5        30.05S
HOLDREGE       CLEAR     61  59  94 S7        30.05S
HEBRON         FOG       56  54  94 CALM      30.05F VSB 1/4

...NEBRASKA PANHANDLE...

CITY           SKY/WX    TMP DP  RH WIND       PRES   REMARKS
CHADRON        PTCLDY    72  44  36 S14       29.91F
ALLIANCE       PTCLDY    56  47  71 SE8       30.01F
SCOTTSBLUFF    PTCLDY    74  40  29 SE10      30.01F
SIDNEY         PTCLDY    67  41  38 S14       30.08F

...WESTERN AND NORTH CENTRAL NEBRASKA...

CITY           SKY/WX    TMP DP  RH WIND       PRES   REMARKS
VALENTINE      CLEAR     69  57  65 SW16      29.96F
AINSWORTH      CLEAR     65  61  85 S10       29.99F
ONEILL         CLEAR     64  63  96 S8        30.00S
BROKEN BOW     CLEAR     59  56  89 CALM      30.03F
IMPERIAL       CLEAR     62  48  60 SW8       30.05F
NORTH PLATTE   CLEAR     65  53  65 SE7       30.04F
MCCOOK         CLEAR     64  52  64 CALM      30.04F

...EASTERN NEBRASKA...

CITY           SKY/WX    TMP DP  RH WIND       PRES   REMARKS
NORFOLK        CLOUDY    63  62  97 S9        30.01F FOG
TEKAMAH        CLOUDY    64  63  96 S6        30.02F
COLUMBUS       CLOUDY   N/A N/A N/A S5        30.03F
ALBION         CLOUDY    63  61  93 SE3       30.03F FOG
OMAHA EPPLEY   PTCLDY    63  61  93 S6        30.03F
OFFUTT AFB     CLEAR     63  61  94 S2        30.03S
MILLARD        CLEAR     64  62  91 CALM      30.04S
LINCOLN        CLOUDY    62  61  96 S6        30.05F FOG
NEBRASKA CITY    N/A     59  58  99 W5        30.04F FOG
BEATRICE       CLOUDY    62  61  97 S5        30.05F FOG
FALLS CITY     FOG       56  56 100 CALM      30.03F VSB 1/4

...NORTHERN KANSAS...

CITY           SKY/WX    TMP DP  RH WIND       PRES   REMARKS
GOODLAND       CLEAR     63  48  58 SW10      30.10F
HILL CITY      CLEAR     56  53  90 CALM      30.06F
NORTON         SUNNY     59  54  82 S6        30.04F
PHILLIPSBURG   FOG       63  63 100 CALM      30.05F VSB 1/2
SMITH CENTER   FOG       55  55 100 SE6       30.06S VSB 1/2
HAYS           CLOUDY    54  46  76 CALM      30.06F VSB 1/4
RUSSELL        CLEAR     57  57 100 S8        30.04F
CONCORDIA      CLEAR     57  57 100 SE5       30.04F FOG
SALINA         PTCLDY    61  58  90 CALM      30.04F
TOPEKA         CLEAR     62  61  96 NW3       30.03F



USA.gov is the U.S. government's official web portal to all federal, state and local government web resources and services.